Weather History for KBGE - August, 2013

Change the Weather History Date:

Saturday, August 24, 2013

  Actual Average (KMAI) Record (KMAI)
Temperature  
Mean Temperature 83 °F 81 °F  
Max Temperature 93 °F 91 °F 100 °F (2010)
Min Temperature 73 °F 72 °F 64 °F (1997)
Degree Days  
Heating Degree Days 0    
Month to date heating degree days  
Since 1 June heating degree days  
Since 1 July heating degree days  
Cooling Degree Days 18    
Month to date cooling degree days  
Year to date cooling degree days  
Since 1 June cooling degree days  
Growing Degree Days 33 (Base 50)    
Moisture  
Dew Point 74 °F    
Average Humidity 85    
Maximum Humidity 100    
Minimum Humidity 55    
Precipitation  
Precipitation 0.00 in 0.15 in 0.68 in (2008)
Month to date precipitation 4.51  
Year to date precipitation 37.41  
Sea Level Pressure  
Sea Level Pressure 30.10 in    
Wind  
Wind Speed 3 mph (ENE)    
Max Wind Speed 17 mph    
Max Gust Speed 46 mph    
Visibility 8 miles    
Events Rain , Thunderstorm    
T = Trace of Precipitation, MM = Missing Value Source: NWS Daily Summary

Daily Weather History Graph

Daily Weather History Graph

Search for Another Location

Airport or City:

Trip Planner

Search our weather history database for the weather conditions in past years. The results will help you decide how hot, cold, wet, or windy it might be!

Date:

Astronomy

Aug. 24, 2013 Rise Set
Actual Time 7:10 AM EDT 8:10 PM EDT
Civil Twilight 6:45 AM EDT 8:35 PM EDT
Nautical Twilight 6:15 AM EDT 9:05 PM EDT
Astronomical Twilight 5:45 AM EDT 9:35 PM EDT
Moon 10:26 PM EDT (8/24) 10:49 AM EDT (8/24)
Length of Visible Light 13h 50m
Length of Day
13h 00m
Waning Gibbous, 84% of the Moon is Illuminated
Aug 24
Waning Gibbous
Aug 28
Last Quarter
Sep 5
New
Sep 12
First Quarter
Sep 19
Full

Hourly Weather History & Observations

Time (EDT) Temp. Heat Index Dew Point Humidity Pressure Visibility Wind Dir Wind Speed Gust Speed Precip Events Conditions
12:15 AM 75.2 °F - 73.4 °F 94% 30.07 in 7.0 mi ENE 3.5 mph - N/A   Mostly Cloudy
12:35 AM 75.2 °F - 73.4 °F 94% 30.07 in 10.0 mi East 4.6 mph - N/A   Mostly Cloudy
12:55 AM 75.2 °F - 73.4 °F 94% 30.06 in 10.0 mi Calm Calm - N/A   Overcast
1:15 AM 75.2 °F - 73.4 °F 94% 30.05 in 10.0 mi Calm Calm - N/A   Overcast
1:35 AM 75.2 °F - 73.4 °F 94% 30.05 in 10.0 mi SE 3.5 mph - N/A   Scattered Clouds
1:55 AM 73.4 °F - 73.4 °F 100% 30.05 in 7.0 mi Calm Calm - N/A   Scattered Clouds
2:15 AM 73.4 °F - 73.4 °F 100% 30.04 in 7.0 mi Calm Calm - N/A   Mostly Cloudy
2:35 AM 75.2 °F - 73.4 °F 94% 30.03 in 10.0 mi Calm Calm - N/A   Overcast
2:55 AM 73.4 °F - 73.4 °F 100% 30.04 in 7.0 mi Calm Calm - N/A   Overcast
3:15 AM 73.4 °F - 73.4 °F 100% 30.03 in 5.0 mi Calm Calm - N/A   Mostly Cloudy
3:35 AM 73.4 °F - 73.4 °F 100% 30.03 in 1.5 mi Calm Calm - N/A   Overcast
3:55 AM 73.4 °F - 73.4 °F 100% 30.03 in 0.8 mi Calm Calm - N/A   Overcast
4:15 AM 73.4 °F - 73.4 °F 100% 30.05 in 2.0 mi Calm Calm - N/A   Overcast
4:35 AM 73.4 °F - 73.4 °F 100% 30.05 in 7.0 mi North 3.5 mph - N/A   Overcast
4:55 AM 73.4 °F - 73.4 °F 100% 30.05 in 0.8 mi NE 3.5 mph - N/A   Overcast
5:15 AM 73.4 °F - 73.4 °F 100% 30.06 in 2.5 mi NE 4.6 mph - N/A   Overcast
5:35 AM 73.4 °F - 71.6 °F 94% 30.06 in 1.0 mi NE 4.6 mph - N/A   Overcast
5:55 AM 73.4 °F - 71.6 °F 94% 30.06 in 2.5 mi NE 3.5 mph - N/A   Overcast
6:15 AM 73.4 °F - 71.6 °F 94% 30.07 in 2.0 mi NE 5.8 mph - N/A   Overcast
6:35 AM 73.4 °F - 73.4 °F 100% 30.08 in 2.0 mi Calm Calm - N/A   Overcast
6:55 AM 73.4 °F - 73.4 °F 100% 30.09 in 2.5 mi Calm Calm - N/A   Overcast
7:15 AM 73.4 °F - 73.4 °F 100% 30.10 in 4.0 mi Calm Calm - N/A   Overcast
7:35 AM 73.4 °F - 73.4 °F 100% 30.10 in 5.0 mi ENE 4.6 mph - N/A   Overcast
7:55 AM 75.2 °F - 73.4 °F 94% 30.11 in 7.0 mi NE 4.6 mph - N/A   Overcast
8:15 AM 75.2 °F - 73.4 °F 94% 30.11 in 7.0 mi NE 4.6 mph - N/A   Overcast
8:35 AM 77.0 °F - 75.2 °F 94% 30.11 in 10.0 mi East 3.5 mph - N/A   Overcast
8:55 AM 77.0 °F - 75.2 °F 94% 30.11 in 10.0 mi Calm Calm - N/A   Overcast
9:15 AM 78.8 °F - 77.0 °F 94% 30.11 in 10.0 mi Calm Calm - N/A   Scattered Clouds
9:35 AM 78.8 °F - 77.0 °F 94% 30.12 in 10.0 mi Calm Calm - N/A   Clear
9:55 AM 78.8 °F - 75.2 °F 89% 30.12 in 10.0 mi Calm Calm - N/A   Clear
10:15 AM 80.6 °F 87.1 °F 77.0 °F 89% 30.13 in 10.0 mi Calm Calm - N/A   Clear
10:35 AM 80.6 °F 86.2 °F 75.2 °F 84% 30.14 in 10.0 mi Calm Calm - N/A   Clear
10:55 AM 82.4 °F 90.9 °F 77.0 °F 84% 30.14 in 10.0 mi Calm Calm - N/A   Clear
11:15 AM 84.2 °F 94.1 °F 77.0 °F 79% 30.14 in 10.0 mi East 3.5 mph - N/A   Clear
11:35 AM 86.0 °F 96.9 °F 77.0 °F 74% 30.14 in 10.0 mi Calm Calm - N/A   Scattered Clouds
11:55 AM 87.8 °F 97.6 °F 75.2 °F 66% 30.14 in 10.0 mi NE 4.6 mph - N/A   Scattered Clouds
12:15 PM 87.8 °F 97.6 °F 75.2 °F 66% 30.14 in 10.0 mi East 5.8 mph - N/A   Scattered Clouds
12:35 PM 89.6 °F 99.8 °F 75.2 °F 62% 30.13 in 10.0 mi ENE 3.5 mph - N/A   Scattered Clouds
12:55 PM 87.8 °F 97.6 °F 75.2 °F 66% 30.13 in 10.0 mi North 5.8 mph - N/A   Mostly Cloudy
1:15 PM 87.8 °F 97.6 °F 75.2 °F 66% 30.12 in 10.0 mi Calm Calm - N/A   Scattered Clouds
1:35 PM 89.6 °F 102.2 °F 77.0 °F 66% 30.12 in 10.0 mi East 4.6 mph - N/A   Scattered Clouds
1:55 PM 91.4 °F 105.1 °F 77.0 °F 63% 30.12 in 10.0 mi NE 3.5 mph - N/A   Scattered Clouds
2:15 PM 87.8 °F 95.6 °F 73.4 °F 62% 30.11 in 10.0 mi Calm Calm - N/A   Clear
2:35 PM 91.4 °F 102.5 °F 75.2 °F 59% 30.11 in 10.0 mi ENE 4.6 mph - N/A   Scattered Clouds
2:55 PM 89.6 °F 102.2 °F 77.0 °F 66% 30.11 in 10.0 mi SSE 4.6 mph - N/A   Clear
3:15 PM 87.8 °F 97.6 °F 75.2 °F 66% 30.10 in 10.0 mi SSW 4.6 mph - N/A   Clear
3:35 PM 93.2 °F 110.2 °F 78.8 °F 63% 30.09 in 10.0 mi ESE 4.6 mph - N/A   Clear
3:55 PM 91.4 °F 100.1 °F 73.4 °F 55% 30.08 in 10.0 mi East 3.5 mph - N/A   Scattered Clouds
4:15 PM 87.8 °F 97.6 °F 75.2 °F 66% 30.07 in 10.0 mi NNE 6.9 mph - N/A   Mostly Cloudy
4:35 PM 84.2 °F 94.1 °F 77.0 °F 79% 30.07 in 2.5 mi NE 4.6 mph 9.2 mph N/A Rain Heavy Rain
4:55 PM 86.0 °F 99.3 °F 78.8 °F 79% 30.07 in 10.0 mi NE 6.9 mph - N/A Rain Light Rain
5:15 PM 86.0 °F 96.9 °F 77.0 °F 74% 30.08 in 10.0 mi NNE 6.9 mph - N/A   Scattered Clouds
5:35 PM 84.2 °F 92.3 °F 75.2 °F 74% 30.08 in 10.0 mi South 4.6 mph - N/A   Scattered Clouds
5:55 PM 84.2 °F 94.1 °F 77.0 °F 79% 30.08 in 10.0 mi Calm Calm - N/A   Scattered Clouds
6:15 PM 84.2 °F 94.1 °F 77.0 °F 79% 30.08 in 10.0 mi ESE 6.9 mph - N/A Thunderstorm Scattered Clouds
6:35 PM 82.4 °F 89.5 °F 75.2 °F 79% 30.08 in 10.0 mi ESE 6.9 mph - N/A   Mostly Cloudy
6:55 PM 80.6 °F 85.4 °F 73.4 °F 79% 30.09 in 10.0 mi SE 8.1 mph - N/A   Scattered Clouds
7:15 PM 80.6 °F 85.4 °F 73.4 °F 79% 30.08 in 10.0 mi Calm Calm - N/A   Clear
7:35 PM 80.6 °F 85.4 °F 73.4 °F 79% 30.09 in 10.0 mi Calm Calm - N/A   Clear
7:55 PM 80.6 °F 86.2 °F 75.2 °F 84% 30.09 in 10.0 mi South 3.5 mph - N/A   Clear
8:15 PM 78.8 °F - 75.2 °F 89% 30.10 in 10.0 mi Calm Calm - N/A   Clear
8:35 PM 78.8 °F - 77.0 °F 94% 30.09 in 10.0 mi Calm Calm - N/A   Clear
8:55 PM 78.8 °F - 75.2 °F 89% 30.11 in 10.0 mi SSE 3.5 mph - N/A   Clear
9:15 PM 78.8 °F - 75.2 °F 89% 30.13 in 10.0 mi SSE 4.6 mph - N/A   Scattered Clouds
9:35 PM 78.8 °F - 75.2 °F 89% 30.14 in 10.0 mi Calm Calm - N/A   Scattered Clouds
9:55 PM 78.8 °F - 71.6 °F 78% 30.16 in 10.0 mi East 17.3 mph 46.0 mph N/A Thunderstorm Thunderstorm
10:15 PM 73.4 °F - 71.6 °F 94% 30.15 in 10.0 mi NE 6.9 mph 10.4 mph N/A Rain Light Rain
10:35 PM 73.4 °F - 71.6 °F 94% 30.15 in 10.0 mi NNE 6.9 mph - N/A Thunderstorm Thunderstorm
10:55 PM 75.2 °F - 71.6 °F 89% 30.16 in 10.0 mi NE 6.9 mph - N/A Rain Light Rain
11:15 PM 73.4 °F - 71.6 °F 94% 30.17 in 10.0 mi NNE 11.5 mph - N/A Rain Light Rain
11:35 PM 73.4 °F - 71.6 °F 94% 30.16 in 10.0 mi East 3.5 mph - N/A   Overcast
11:55 PM 73.4 °F - 71.6 °F 94% 30.18 in 10.0 mi North 5.8 mph - N/A   Overcast